This is the latest recevied weather packets stored in our database for station/object NZ3C. If no packets are shown the sender has not sent any weather packets the latest 10 day(s).
| Time | Temp. | Humidity | Pressure | Rain* | Wind** | Luminosity | Snow |
|---|---|---|---|---|---|---|---|
| 1777574456 | 21.67° C | 57% | 1010.2 hPa | 0 mm | - | 551 W/m² | - |
| 1777574156 | 22.22° C | 56% | 1010.3 hPa | 0 mm | - | 510 W/m² | - |
| 1777573852 | 21.67° C | 56% | 1010.1 hPa | 0 mm | - | 709 W/m² | - |
| 1777573547 | 21.67° C | 63% | 1010.3 hPa | 0 mm | - | 627 W/m² | - |
| 1777573243 | 21.11° C | 62% | 1010.4 hPa | 0 mm | - | 460 W/m² | - |
| 1777572940 | 21.11° C | 61% | 1010.4 hPa | 0 mm | - | 556 W/m² | - |
| 1777572636 | 21.11° C | 62% | 1010.4 hPa | 0 mm | - | 705 W/m² | - |
| 1777572335 | 21.11° C | 65% | 1010.5 hPa | 0 mm | - | 622 W/m² | - |
| 1777572032 | 21.11° C | 61% | 1010.6 hPa | 0 mm | - | 539 W/m² | - |
| 1777571732 | 21.11° C | 63% | 1010.8 hPa | 0 mm | - | 598 W/m² | - |
| 1777571430 | 20.56° C | 68% | 1010.4 hPa | 0 mm | - | 610 W/m² | - |
| 1777571126 | 21.11° C | 63% | 1010.6 hPa | 0 mm | - | 794 W/m² | - |
| 1777570822 | 20.56° C | 65% | 1010.6 hPa | 0 mm | - | 1175 W/m² | - |
| 1777570518 | 20.56° C | 69% | 1010.6 hPa | 0 mm | - | 728 W/m² | - |
| 1777570215 | 19.44° C | 69% | 1011 hPa | 0 mm | - | 922 W/m² | - |
| 1777569909 | 19.44° C | 72% | 1011.1 hPa | 0 mm | - | 395 W/m² | - |
| 1777569606 | 19.44° C | 72% | 1011.2 hPa | 0 mm | - | 591 W/m² | - |
| 1777569302 | 18.89° C | 75% | 1011.1 hPa | 0 mm | - | 728 W/m² | - |
| 1777568999 | 18.89° C | 76% | 1011.1 hPa | 0 mm | - | 479 W/m² | - |
| 1777568696 | 18.33° C | 80% | 1011.2 hPa | 0 mm | - | 301 W/m² | - |
| 1777568393 | 18.33° C | 78% | 1011.2 hPa | 0 mm | - | 180 W/m² | - |
| 1777568090 | 18.33° C | 78% | 1011.4 hPa | 0 mm | - | 145 W/m² | - |
| 1777567786 | 18.33° C | 79% | 1011.5 hPa | 0 mm | - | 250 W/m² | - |
| 1777567483 | 18.33° C | 79% | 1011.4 hPa | 0 mm | - | 325 W/m² | - |
| 1777567181 | 18.33° C | 80% | 1011.5 hPa | 0 mm | - | 292 W/m² | - |
* Rain latest hour (hover to see other rain measurements)
** Current wind speed in m/s (hover to see current wind gust speed)